Powrót do katalogu

STARLINK-2395

AktywnyŁącznośćVLEO
NORAD 47814·PAYLOAD·🇺🇸 United States

Wystrzelony Mar 11, 2021 z Cape Canaveral Space Force Station

Loading…

Następne Przeloty (najbliższe 24 godziny)

TLE

ŚwieżeSource: CelesTrak SupGP

Epoka: Sep 14, 2026, 19:37 UTC

1 47814C 21018AD  26257.81784722  .00025778  00000+0  75254-3 0  2578
2 47814  53.1560  82.1593 0000993 134.4130 305.2256 15.34754611    12

Śledź STARLINK-2395 w czasie rzeczywistym z AllMySat

Download on the App Store